Wind_Speed
13 13 13 12 12 11 10 9 9 9 9 8 8 8 7 7 7 6 6 6 6 5 4 4 4 3 3 3 3 3 2 2 2 2 2 2 2 2 2 2 2 3 3
15 15 14 13 13 13 12 11 10 10 10 10 10 9 9 9 8 7 7 7 7 6 5 5 4 4 4 4 4 3 3 2 2 2 2 2 1 1 1 2 2 2 3
17 17 16 15 14 14 13 12 12 11 11 11 11 11 11 10 10 9 9 8 8 7 7 6 6 5 5 5 4 4 4 3 3 3 2 2 1 1 0 1 1 1 2
18 18 17 17 16 15 15 14 13 13 12 12 12 12 12 11 11 11 10 10 9 8 8 7 7 7 6 6 6 5 5 5 4 4 3 3 2 2 1 1 1 1 2
19 19 19 18 18 17 16 16 15 14 14 13 13 13 13 12 12 12 11 11 10 10 9 9 8 8 8 7 7 6 6 5 5 5 4 4 3 3 2 2 2 2 2
20 20 19 19 19 19 18 17 16 16 15 15 15 14 14 13 13 12 12 11 11 11 10 10 9 9 9 8 8 7 7 6 6 6 6 5 4 4 4 4 3 4 4
22 22 21 21 20 20 20 19 18 18 17 17 16 15 15 15 14 13 13 12 12 11 11 11 10 10 9 9 8 8 8 8 8 7 7 7 6 6 6 5 5 5 5
24 23 22 22 22 21 21 21 20 19 19 18 17 17 16 16 15 14 14 13 13 13 12 12 12 11 10 10 9 9 9 9 9 9 8 8 8 7 7 7 7 7 6
25 24 23 23 23 23 23 22 22 21 21 20 19 19 18 17 17 16 15 15 14 14 14 13 13 12 12 11 11 10 10 10 11 10 10 9 9 8 8 8 8 8 8
26 26 25 25 25 24 24 24 23 23 22 22 22 21 20 19 18 18 17 17 16 16 15 15 14 14 13 13 13 12 12 11 12 11 11 10 10 10 9 9 9 10 10
28 28 27 27 26 26 25 24 24 24 24 24 23 23 22 21 20 19 19 18 18 17 17 16 16 15 15 14 14 14 14 13 13 13 12 12 12 11 11 11 11 11 11
29 29 29 29 28 28 27 26 26 26 25 25 25 24 23 23 22 21 20 20 20 19 18 18 17 17 16 16 16 15 15 15 14 14 14 14 13 13 13 13 13 13 13
31 31 30 30 30 30 29 28 28 27 27 26 26 26 25 24 24 23 22 22 21 21 20 20 19 18 18 18 18 17 17 16 16 16 15 15 15 15 14 14 14 14 14
33 32 32 32 32 31 31 30 30 29 29 28 28 28 27 27 26 25 24 24 23 22 22 22 21 20 20 19 19 19 18 18 18 18 17 17 17 16 16 15 15 15 16
35 34 34 33 33 33 33 32 32 31 30 30 30 30 29 29 27 27 26 25 24 24 23 23 23 23 22 21 21 21 20 20 19 19 19 18 18 18 17 18 18 18 18
36 35 35 35 34 34 34 34 34 33 31 31 31 31 31 30 29 29 28 26 26 25 24 24 24 24 24 23 23 22 22 21 21 21 20 20 20 19 19 19 20 20 20
38 37 36 36 36 36 36 35 35 35 33 32 32 31 31 30 30 30 30 29 28 27 27 26 26 25 25 25 25 24 24 23 23 23 23 22 22 22 22 21 22 22 22
39 38 37 37 37 37 36 36 35 35 35 34 34 33 33 32 31 31 30 30 30 30 30 29 29 28 27 26 26 26 26 26 25 25 25 24 24 24 24 24 24 24 24
40 39 38 38 38 37 37 37 36 36 36 36 36 35 35 34 33 33 32 31 32 32 32 32 31 30 29 28 28 28 28 28 27 27 27 26 26 26 26 26 25 25 26
41 40 39 38 38 38 38 38 38 37 37 37 37 37 37 36 35 36 34 33 34 34 33 33 32 32 31 30 30 29 29 29 29 29 29 29 28 28 28 28 27 27 27
42 41 40 39 39 39 39 38 38 38 38 38 38 38 38 37 37 37 36 35 35 35 34 35 35 33 32 32 32 31 31 31 31 31 31 31 31 30 30 29 29 29 29
42 42 40 40 40 39 39 39 39 38 38 38 38 39 39 39 38 37 37 36 36 36 35 35 35 35 34 33 33 32 32 32 32 32 32 32 32 32 31 31 31 31 31
43 42 41 40 40 40 40 40 40 39 39 38 38 38 39 39 39 39 38 37 37 36 36 35 35 35 35 35 34 34 33 33 33 33 33 34 33 33 32 32 33 33 33
43 42 42 41 41 41 41 41 40 39 39 39 39 39 39 40 39 39 39 38 38 37 36 36 35 35 35 35 35 36 35 35 35 34 34 34 35 34 34 34 34 34 34
44 43 43 42 42 42 42 41 41 40 40 40 40 39 39 39 40 40 40 39 38 37 37 37 36 36 36 36 36 37 37 37 36 36 35 35 35 35 36 36 36 36 36
45 44 44 43 43 42 42 42 41 41 40 40 41 40 39 39 40 41 40 39 38 38 37 37 37 37 37 37 37 38 38 38 37 38 38 37 37 37 37 37 38 38 38
Wind_Direction
230 230 230 230 229 228 229 231 233 234 233 231 228 230 231 231 231 229 226 224 225 223 223 224 221 219 211 199 193 186 182 175 165 157 144 127 114 85 59 56 58 52 46
233 233 233 232 232 230 231 233 235 235 234 234 233 234 235 236 236 234 233 231 231 230 231 232 231 228 222 217 215 216 213 209 202 189 172 154 142 107 75 77 65 44 37
233 233 233 233 233 232 232 234 235 237 236 236 237 236 237 237 238 237 237 236 236 235 235 235 237 236 233 230 229 230 227 226 225 219 211 207 220 245 182 117 52 29 24
234 233 232 232 233 234 234 235 236 237 236 237 238 238 237 238 241 241 240 238 239 240 239 239 241 242 240 237 236 236 237 235 235 233 232 233 246 257 254 250 285 329 343
234 233 233 232 233 234 235 235 236 236 236 237 239 239 238 240 241 242 242 241 242 242 243 244 244 243 242 241 239 239 240 238 237 239 239 240 249 258 261 264 275 298 315
234 234 234 234 234 234 235 236 236 236 236 237 239 240 240 240 241 242 243 243 244 244 244 244 245 246 244 242 241 240 239 239 239 244 244 243 250 254 254 260 271 281 291
235 235 236 236 235 235 235 236 236 236 236 237 238 239 239 240 241 242 245 246 246 246 246 246 246 248 247 245 243 241 238 239 240 245 248 247 250 253 255 261 268 275 282
235 235 236 236 236 236 235 235 236 236 237 238 239 239 239 240 242 244 246 248 248 246 246 248 248 249 248 245 244 242 241 242 243 244 248 250 253 255 258 261 264 271 279
235 236 236 236 236 236 236 236 236 237 237 238 240 240 241 242 243 245 248 249 250 249 249 249 250 250 249 246 245 244 245 246 246 246 248 251 254 256 259 263 266 269 274
236 237 237 237 237 237 237 237 237 238 238 238 240 240 242 243 244 246 248 249 250 251 251 249 249 251 250 249 248 247 247 248 248 248 249 251 253 257 261 265 268 270 273
237 239 239 238 237 237 237 238 238 239 239 238 239 240 242 244 245 246 248 249 250 251 251 250 250 251 251 251 251 250 250 250 251 249 249 251 253 256 262 265 268 270 273
239 239 239 239 239 239 239 239 239 240 240 239 239 240 241 243 245 246 248 249 249 250 250 251 251 251 251 252 253 253 251 251 252 251 250 250 252 256 260 264 267 269 273
239 239 240 240 240 240 240 240 240 240 241 241 240 241 242 244 245 246 247 249 249 248 250 251 251 250 252 253 254 255 254 252 253 253 253 253 255 256 260 264 267 269 272
240 240 241 240 241 241 241 241 241 242 242 242 241 242 242 244 245 246 247 248 248 249 250 251 250 250 252 254 255 256 257 254 253 255 255 256 257 259 261 264 267 270 273
240 240 241 241 242 242 242 242 242 243 244 244 243 243 243 243 245 247 247 247 247 249 250 251 251 252 253 254 255 256 257 257 254 255 256 258 259 261 263 266 269 271 272
240 240 240 241 242 242 243 243 243 243 244 244 243 243 243 243 244 246 247 247 248 248 250 252 252 254 254 255 255 256 257 257 255 255 257 258 260 262 264 267 270 271 273
239 239 240 241 242 242 243 243 243 242 243 243 243 243 243 243 243 245 246 247 248 249 250 252 252 254 254 254 254 256 256 257 256 255 257 259 261 263 265 267 270 270 273
239 239 239 240 241 242 242 242 242 243 243 243 243 243 244 245 246 246 247 248 249 251 251 251 251 253 254 254 254 254 256 257 258 257 257 259 262 264 266 267 269 271 273
238 239 239 239 239 239 240 241 242 243 244 244 244 244 245 246 246 247 249 249 249 250 251 251 250 251 253 253 254 254 255 257 258 258 258 259 261 264 266 268 270 271 273
238 239 239 239 238 238 240 242 243 243 244 244 244 245 245 246 247 248 249 250 250 250 249 250 250 251 252 252 253 254 255 256 258 258 259 260 261 263 265 268 270 272 273
238 238 239 238 238 239 240 241 242 243 243 243 243 244 245 245 247 247 249 250 250 250 249 249 250 250 251 251 252 254 255 256 257 258 259 261 262 262 264 267 268 269 271
238 238 238 238 237 238 239 240 241 242 243 243 243 244 245 245 246 247 249 250 250 249 249 249 249 250 251 252 253 254 255 255 256 257 259 261 262 263 265 267 268 270 271
237 237 236 237 237 237 238 239 241 242 242 243 243 244 245 245 245 247 248 249 249 249 249 248 249 250 251 251 252 254 256 256 255 257 259 262 263 264 266 268 270 271 272
236 236 236 236 236 237 238 239 240 242 243 243 242 243 244 245 246 246 247 247 247 248 247 247 249 251 251 251 253 254 256 257 256 256 259 261 263 264 266 268 270 273 273
234 235 235 236 237 237 238 239 240 242 243 243 243 244 245 245 246 247 247 246 246 247 247 248 249 250 251 252 252 254 255 256 257 257 259 261 263 264 266 268 270 272 273
233 234 234 235 236 237 238 239 241 242 243 243 244 245 246 246 246 247 247 245 245 247 248 248 249 250 251 252 253 254 255 256 257 258 259 261 263 264 266 268 270 271 274
Height
5855 5856 5857 5859 5860 5861 5862 5863 5864 5865 5866 5867 5868 5869 5870 5871 5871 5872 5872 5873 5873 5873 5874 5874 5874 5875 5875 5875 5875 5875 5875 5876 5875 5875 5875 5875 5875 5875 5874 5874 5874 5873 5873
5853 5854 5855 5857 5858 5859 5861 5862 5863 5864 5865 5866 5867 5868 5869 5870 5870 5871 5872 5872 5873 5873 5873 5874 5874 5874 5875 5875 5875 5875 5875 5876 5876 5875 5875 5875 5875 5875 5875 5874 5874 5874 5873
5850 5852 5853 5854 5856 5857 5859 5860 5862 5863 5864 5865 5866 5867 5868 5869 5869 5870 5871 5871 5872 5872 5873 5873 5873 5874 5874 5874 5875 5875 5875 5875 5875 5875 5875 5875 5875 5875 5875 5875 5874 5874 5874
5847 5849 5850 5852 5854 5855 5857 5858 5860 5861 5862 5864 5865 5866 5866 5867 5868 5869 5869 5870 5871 5871 5872 5872 5873 5873 5874 5874 5874 5874 5875 5875 5875 5875 5875 5875 5875 5875 5875 5874 5874 5874 5874
5844 5846 5847 5849 5851 5852 5854 5856 5857 5859 5860 5862 5863 5864 5865 5866 5867 5867 5868 5869 5869 5870 5871 5871 5872 5872 5873 5873 5873 5874 5874 5874 5874 5875 5875 5875 5875 5875 5874 5874 5874 5874 5874
5840 5842 5844 5845 5847 5849 5851 5853 5855 5856 5858 5859 5861 5862 5863 5864 5865 5866 5867 5867 5868 5869 5869 5870 5870 5871 5871 5872 5872 5873 5873 5873 5873 5874 5874 5874 5874 5874 5874 5874 5874 5874 5873
5836 5838 5840 5842 5844 5846 5848 5850 5852 5853 5855 5857 5858 5859 5861 5862 5863 5864 5865 5866 5866 5867 5868 5868 5869 5870 5870 5871 5871 5871 5872 5872 5872 5873 5873 5873 5873 5873 5873 5873 5873 5873 5873
5832 5834 5836 5838 5840 5842 5844 5846 5848 5850 5852 5854 5855 5857 5858 5859 5861 5862 5863 5864 5864 5865 5866 5867 5867 5868 5868 5869 5869 5870 5870 5871 5871 5872 5872 5872 5872 5872 5872 5872 5872 5872 5872
5827 5829 5831 5833 5835 5838 5840 5842 5844 5846 5848 5850 5852 5854 5855 5857 5858 5859 5860 5861 5862 5863 5864 5865 5865 5866 5867 5867 5868 5868 5869 5869 5869 5870 5870 5871 5871 5871 5871 5871 5871 5871 5871
5822 5824 5827 5829 5831 5833 5835 5838 5840 5842 5844 5846 5848 5850 5852 5853 5855 5856 5857 5858 5860 5861 5861 5862 5863 5864 5864 5865 5866 5866 5867 5867 5868 5868 5869 5869 5869 5869 5869 5869 5869 5869 5869
5816 5819 5821 5824 5826 5828 5831 5833 5835 5837 5840 5842 5844 5846 5848 5850 5851 5853 5854 5855 5856 5858 5859 5860 5860 5861 5862 5862 5863 5864 5864 5865 5865 5866 5866 5867 5867 5867 5867 5867 5867 5867 5867
5810 5813 5815 5818 5820 5823 5826 5828 5830 5833 5835 5837 5839 5841 5844 5845 5847 5849 5850 5851 5853 5854 5855 5856 5857 5858 5859 5859 5860 5861 5862 5862 5863 5863 5864 5864 5865 5865 5865 5865 5865 5865 5865
5804 5806 5809 5812 5814 5817 5820 5822 5825 5827 5830 5832 5834 5837 5839 5841 5842 5844 5846 5847 5849 5850 5852 5853 5854 5855 5856 5856 5857 5858 5858 5859 5860 5860 5861 5861 5862 5862 5862 5862 5862 5862 5862
5797 5800 5802 5805 5808 5811 5814 5816 5819 5822 5824 5826 5829 5831 5833 5835 5837 5839 5841 5843 5844 5846 5847 5849 5850 5851 5852 5853 5854 5854 5855 5856 5856 5857 5858 5858 5859 5859 5859 5859 5859 5859 5859
5789 5792 5795 5798 5801 5804 5807 5810 5812 5815 5818 5820 5822 5825 5827 5830 5832 5834 5836 5838 5839 5841 5843 5844 5846 5847 5848 5849 5850 5850 5851 5852 5853 5853 5854 5855 5855 5856 5856 5856 5856 5856 5856
5781 5785 5788 5791 5794 5797 5800 5803 5805 5808 5811 5813 5816 5818 5821 5823 5826 5828 5830 5832 5834 5836 5838 5839 5841 5842 5843 5844 5845 5846 5847 5848 5849 5849 5850 5851 5852 5852 5852 5852 5852 5852 5852
5773 5776 5780 5783 5786 5789 5792 5795 5798 5800 5803 5806 5809 5812 5814 5817 5819 5822 5824 5826 5828 5830 5832 5834 5836 5837 5838 5840 5841 5842 5842 5843 5844 5845 5846 5847 5847 5848 5848 5848 5848 5848 5848
5764 5768 5771 5774 5777 5780 5784 5787 5790 5793 5796 5799 5802 5805 5807 5810 5813 5815 5818 5820 5822 5824 5826 5828 5830 5831 5833 5834 5835 5836 5837 5838 5839 5840 5841 5842 5843 5843 5843 5843 5843 5843 5843
5755 5759 5763 5766 5769 5772 5776 5779 5782 5785 5789 5792 5795 5797 5800 5803 5806 5808 5811 5813 5815 5817 5819 5821 5823 5825 5827 5828 5830 5831 5832 5833 5834 5835 5836 5837 5837 5838 5838 5838 5838 5838 5838
5746 5750 5753 5757 5760 5764 5767 5771 5774 5777 5781 5784 5787 5790 5793 5796 5798 5801 5803 5805 5807 5810 5812 5814 5816 5818 5820 5822 5823 5825 5826 5827 5828 5829 5830 5831 5832 5832 5832 5832 5832 5832 5832
5736 5740 5744 5748 5751 5755 5759 5762 5765 5769 5772 5775 5779 5782 5785 5788 5790 5793 5795 5798 5800 5802 5804 5807 5809 5811 5813 5815 5817 5818 5819 5821 5822 5823 5824 5824 5825 5826 5826 5826 5826 5826 5826
5727 5731 5735 5739 5743 5746 5750 5754 5757 5760 5763 5767 5770 5773 5776 5779 5782 5785 5787 5789 5792 5794 5796 5799 5801 5803 5806 5807 5809 5811 5812 5814 5815 5816 5817 5818 5818 5819 5819 5819 5819 5819 5819
5717 5721 5726 5730 5734 5738 5741 5745 5748 5751 5755 5758 5761 5765 5768 5770 5773 5776 5778 5781 5783 5786 5788 5791 5793 5796 5798 5800 5802 5804 5805 5807 5808 5809 5810 5811 5811 5812 5812 5812 5812 5812 5812
5707 5712 5716 5720 5724 5728 5732 5736 5739 5743 5746 5750 5753 5756 5759 5762 5764 5767 5769 5772 5774 5777 5780 5782 5785 5787 5790 5792 5794 5796 5798 5799 5800 5801 5803 5803 5803 5804 5804 5805 5805 5804 5804
5697 5702 5706 5711 5715 5719 5723 5727 5731 5734 5737 5740 5743 5746 5749 5752 5755 5757 5760 5763 5766 5769 5771 5774 5777 5779 5781 5784 5786 5787 5789 5791 5792 5793 5795 5795 5796 5796 5796 5797 5797 5797 5796
5687 5692 5697 5701 5705 5710 5714 5718 5721 5725 5728 5731 5734 5737 5740 5743 5746 5748 5750 5754 5757 5760 5763 5766 5768 5771 5773 5775 5777 5779 5781 5782 5783 5784 5786 5787 5787 5788 5788 5788 5788 5788 5788